GEFSCGP_500_meanwind_000.txt.gz
Wind_Speed
37 39 35 31 35 36 36 37 35 28 32 36 36 35 34 33 31 28 25 19 17 17 20 23 22 22 24 25 27 29 28 27 26 26 27 29 28 26 26 26 26 27 29 32
38 37 30 33 38 38 39 40 37 30 35 39 38 38 37 34 29 24 21 21 17 18 22 25 23 25 26 28 30 33 35 33 32 32 32 32 32 31 30 31 31 32 33 35
35 33 33 37 40 41 41 39 35 32 37 41 41 40 39 37 35 31 26 20 16 20 24 27 28 29 31 32 34 37 38 37 37 38 39 38 38 38 36 36 35 36 39 43
35 29 32 36 39 41 39 35 33 33 37 41 44 46 43 43 39 33 23 18 18 22 27 30 32 33 34 35 37 39 40 40 41 41 42 42 43 44 40 41 41 42 47 51
32 27 32 35 35 37 35 32 35 36 40 44 44 48 47 45 40 31 22 21 24 29 32 34 34 36 37 37 41 42 43 43 43 43 42 41 41 41 41 43 45 48 54 58
35 30 32 35 34 35 35 33 37 39 41 46 42 45 46 43 36 31 28 28 29 32 34 35 36 38 39 40 41 43 45 44 45 45 44 42 41 42 45 46 51 57 61 62
31 30 30 33 33 33 36 35 36 38 40 42 39 43 43 39 36 34 33 34 36 37 38 39 40 41 41 42 43 45 47 46 49 45 44 45 43 43 45 50 57 63 65 64
31 30 27 27 28 27 32 34 34 36 37 39 38 39 37 38 38 38 39 39 40 41 43 44 43 43 44 45 49 44 45 49 53 45 48 51 45 41 46 52 60 66 66 59
33 33 28 26 25 26 28 32 33 35 37 40 38 37 33 31 30 32 34 35 37 39 39 36 36 39 44 46 47 47 49 52 54 53 55 52 42 41 50 56 60 63 61 56
32 31 26 25 26 27 29 31 35 37 38 40 38 34 30 26 26 26 26 28 32 36 35 34 37 41 45 48 51 52 54 59 59 53 47 39 39 46 53 55 56 56 53 52
32 31 25 27 24 22 25 30 33 36 40 41 41 36 34 29 28 27 26 27 29 31 35 36 38 42 46 47 51 54 53 59 57 48 34 32 41 50 52 52 52 51 49 49
35 34 30 29 29 25 24 29 33 37 39 41 41 39 38 36 34 34 32 31 30 33 36 38 40 43 47 49 50 57 54 48 46 44 43 52 56 50 49 51 51 49 49 49
39 38 36 34 33 32 32 34 36 39 40 40 42 42 40 38 36 36 37 35 36 38 41 42 43 45 47 45 50 52 41 44 48 48 52 53 48 50 53 51 47 46 48 45
41 39 37 34 33 33 34 37 40 40 40 42 44 44 43 40 39 38 37 37 39 39 40 42 47 48 44 41 47 42 40 47 47 48 49 50 50 52 50 48 47 47 43 42
46 42 40 39 39 38 36 36 37 39 40 41 42 43 44 44 44 43 42 42 43 42 40 42 45 45 42 45 45 39 51 51 46 45 43 46 48 48 47 47 46 43 42 44
52 53 50 45 44 44 43 40 39 39 41 42 45 45 39 42 43 44 47 47 44 45 45 46 45 43 47 48 47 55 51 43 38 42 43 44 43 44 43 43 42 43 44 46
52 56 58 56 53 52 49 46 46 47 47 49 49 47 46 48 48 49 51 48 47 49 52 54 55 54 53 56 60 56 44 42 44 43 43 44 42 39 39 40 41 44 46 49
45 52 58 60 61 61 56 53 52 53 53 57 57 55 54 54 54 54 55 55 56 56 58 61 60 57 56 55 51 43 44 46 43 43 43 41 39 39 39 41 43 46 49 51
40 42 48 54 58 59 57 56 55 56 56 54 54 54 55 56 57 59 59 59 60 61 61 57 54 48 46 44 39 40 41 39 40 41 41 40 39 40 40 43 46 48 49 50
40 42 44 46 50 52 52 51 52 53 52 48 48 48 50 52 54 53 53 55 54 53 51 51 48 37 41 37 35 35 36 37 38 39 38 38 38 39 41 44 46 47 48 49
36 39 41 44 47 50 49 49 49 48 45 45 45 47 48 49 48 47 47 47 45 44 41 36 41 37 33 29 29 31 34 36 36 35 36 36 37 39 42 43 45 47 47 46
31 33 35 37 40 42 43 44 44 41 38 36 37 39 41 42 40 39 38 34 34 33 29 24 25 23 25 26 27 30 32 33 32 33 35 36 38 41 43 44 45 44 43 43
29 31 32 34 33 35 36 36 35 33 31 29 30 31 34 35 35 35 31 25 25 21 21 19 18 20 22 23 26 28 29 30 29 32 34 37 40 42 43 43 42 40 40 41
33 34 34 33 31 32 32 31 31 30 28 27 26 26 29 29 29 28 28 26 24 26 21 19 19 19 20 22 25 26 26 25 28 32 36 39 41 42 41 40 38 37 39 41
33 36 35 29 27 27 27 28 28 26 23 22 22 23 25 22 22 20 15 14 17 18 16 17 17 18 21 22 21 21 22 25 29 33 37 39 40 40 38 37 36 38 38 38
24 26 26 24 26 23 23 22 20 19 18 16 16 23 20 17 17 17 16 15 13 12 12 13 16 18 17 15 17 19 22 26 31 35 36 37 37 37 36 37 38 37 36 34

GEFSCGP_500_meanwind_006.txt.gz
Wind_Speed
25 27 26 26 30 33 36 36 37 38 41 38 42 46 47 43 41 38 35 32 28 24 28 29 26 25 23 21 19 17 18 20 22 23 24 24 26 28 28 27 28 30 32 33
22 23 26 30 33 34 34 36 37 38 40 41 46 48 47 45 43 41 40 37 33 30 31 33 31 30 29 28 26 22 22 23 25 27 29 30 31 32 33 32 33 35 37 37
16 19 23 28 32 34 36 37 37 37 39 42 46 47 46 45 43 42 42 39 34 32 31 33 32 32 33 32 31 30 29 28 29 31 32 34 35 37 38 40 41 42 43 42
17 18 20 25 29 31 33 35 37 37 39 40 45 45 39 44 42 41 41 41 37 34 34 35 34 32 32 33 34 35 34 32 32 33 35 38 39 40 42 44 45 48 48 48
21 21 23 25 27 30 32 34 36 37 38 41 44 46 40 42 42 39 39 40 41 39 39 38 34 32 34 36 37 37 37 35 34 36 38 40 42 46 47 47 48 51 52 53
25 24 24 25 27 29 29 31 32 34 37 42 40 42 38 34 38 36 37 38 40 41 41 38 37 37 37 38 39 40 39 37 37 37 39 42 44 47 49 50 50 49 49 49
27 26 25 25 27 28 28 28 28 30 33 35 32 38 36 33 35 35 35 36 37 37 36 36 37 37 38 40 42 43 42 39 36 38 41 44 45 48 49 48 45 43 42 42
30 27 25 24 25 28 30 30 29 28 25 23 26 33 28 31 34 32 30 29 28 27 27 29 32 35 38 40 41 41 40 37 36 39 43 44 44 45 43 41 40 40 42 44
29 24 23 24 25 28 29 30 29 30 30 28 28 28 29 30 29 26 26 25 23 22 23 25 28 31 33 35 36 37 37 37 39 42 45 47 46 42 40 39 41 43 44 47
30 28 24 23 27 30 30 28 28 31 30 30 28 25 22 22 24 21 20 21 21 20 20 22 24 27 30 31 32 34 36 39 42 44 46 44 41 40 42 45 45 44 45 48
31 30 26 25 27 28 31 32 32 30 26 26 27 24 25 28 25 21 19 20 21 23 25 26 26 28 30 31 32 33 36 40 42 43 44 43 42 44 50 48 45 45 47 50
33 31 28 27 28 28 32 33 31 29 27 27 27 25 28 29 25 21 20 20 21 24 26 27 28 29 30 33 34 35 37 39 40 41 43 45 48 51 52 48 46 46 48 49
35 33 28 25 28 30 32 34 35 34 31 29 27 25 28 26 25 23 23 25 27 29 30 30 31 33 34 35 36 37 39 42 45 48 50 51 51 52 51 47 46 47 46 47
36 35 32 26 27 33 32 32 35 36 32 29 28 28 33 32 30 30 30 30 32 33 34 36 37 37 38 38 39 41 44 46 50 51 51 51 50 49 48 46 46 45 45 47
37 38 39 38 37 37 36 36 36 36 35 33 31 32 35 35 33 34 34 35 35 36 37 38 39 40 43 44 46 47 48 50 51 50 50 49 48 47 46 45 44 44 45 45
38 41 41 40 41 41 39 38 38 38 36 36 35 35 38 35 35 35 35 35 36 37 39 41 43 47 49 50 50 49 49 49 48 47 48 48 47 46 45 44 43 43 44 45
38 39 40 40 42 42 42 44 44 42 42 42 41 42 43 40 40 40 40 41 42 44 46 48 49 50 51 50 49 47 47 45 46 47 48 48 47 44 43 42 42 43 45 46
38 39 39 39 41 42 44 45 43 45 48 49 49 50 49 48 47 47 47 48 50 51 51 51 49 48 47 45 44 44 43 45 49 49 49 47 43 41 41 41 42 44 46 48
36 36 37 38 39 39 41 40 40 42 48 50 53 55 55 54 53 52 52 52 51 50 48 46 45 44 42 41 41 42 45 48 50 47 42 39 39 40 40 41 43 45 48 50
30 31 32 33 33 35 39 37 38 38 41 42 43 46 49 51 51 50 49 48 46 45 44 43 41 39 38 38 42 46 49 49 45 37 34 36 38 40 40 42 44 47 49 48
26 27 28 30 33 36 38 37 37 36 37 37 37 38 39 41 42 43 43 43 42 41 40 38 35 33 34 39 46 48 46 40 35 33 34 36 37 39 41 43 45 47 47 46
24 24 26 28 30 34 34 34 33 32 32 32 33 33 33 34 35 36 37 37 36 34 33 31 29 30 35 41 42 39 34 32 31 32 34 35 36 39 41 43 44 44 45 46
21 23 25 28 30 33 33 32 31 29 27 27 27 27 27 27 28 28 28 29 29 28 26 25 27 32 36 35 33 30 28 28 30 30 32 34 37 39 41 42 43 44 45 46
23 25 28 30 31 34 34 34 33 31 29 26 25 24 24 23 23 23 22 23 23 22 23 26 30 32 31 29 26 25 25 25 26 29 32 35 38 39 40 42 43 44 43 41
24 26 28 31 33 36 36 37 35 33 29 25 22 21 20 19 18 17 18 19 20 21 24 26 27 27 25 22 20 19 20 23 27 31 34 36 37 39 40 42 42 40 36 31
23 24 25 25 28 28 28 30 28 24 20 18 17 17 16 14 12 11 12 13 15 18 20 21 20 17 15 15 15 17 21 25 29 31 34 36 38 40 40 39 36 32 27 23

GEFSCGP_500_meanwind_012.txt.gz
Wind_Speed
27 28 26 24 24 24 24 22 20 20 18 21 28 34 34 27 27 32 35 36 37 38 39 39 36 29 28 28 29 30 31 33 34 34 34 33 32 30 30 30 30 32 33 34
27 25 21 22 20 20 22 27 28 27 27 28 29 32 36 35 32 30 37 41 40 40 42 39 36 33 31 31 32 34 35 37 39 40 40 39 38 37 36 36 36 36 36 36
22 17 17 20 21 21 24 26 28 30 30 33 35 36 39 42 37 37 40 45 44 42 45 43 39 37 34 33 33 36 37 38 40 42 44 44 44 43 42 42 41 40 39 39
19 19 17 19 20 21 24 24 25 28 30 32 32 36 36 37 35 31 35 41 42 38 42 42 38 36 36 35 34 36 38 39 41 44 45 46 47 47 47 47 46 44 43 42
19 18 19 18 17 18 18 18 21 23 26 31 33 38 37 33 30 30 30 34 38 36 37 39 37 37 38 36 33 35 38 41 43 45 47 48 49 50 51 51 50 47 44 44
22 18 18 19 19 19 17 18 20 22 24 29 27 30 32 29 28 29 27 30 35 33 33 36 35 34 35 34 34 36 39 42 44 45 47 49 50 51 52 52 50 48 45 46
22 21 21 22 21 20 20 19 19 20 22 22 17 22 23 20 21 26 26 30 32 30 36 38 36 34 33 34 35 36 38 40 42 44 47 48 49 50 50 48 46 45 46 47
22 23 22 24 25 23 22 22 21 19 20 19 16 18 18 18 20 25 29 34 37 39 39 38 36 32 31 31 33 35 37 40 42 44 45 46 47 47 46 45 44 45 47 47
21 20 20 23 24 25 21 24 22 22 21 23 23 23 20 20 22 25 28 32 36 35 32 32 31 30 29 30 32 34 35 37 39 41 42 43 44 44 43 43 44 45 47 49
32 30 20 17 22 25 24 22 22 24 25 26 24 21 19 22 23 26 29 33 31 24 25 27 28 28 28 30 31 32 34 36 38 39 40 41 43 42 42 43 45 48 51 53
37 37 31 22 21 21 21 21 22 25 26 25 24 20 22 27 29 31 33 35 31 26 26 27 28 28 29 30 31 32 34 36 38 40 41 42 43 42 43 46 49 51 53 54
39 38 39 36 30 24 24 26 26 28 29 28 29 26 28 31 30 31 34 39 38 31 27 27 28 29 30 31 32 34 36 38 40 42 43 45 46 47 49 50 51 52 53 53
42 42 41 38 33 29 28 28 30 31 31 30 29 26 31 34 34 35 39 41 36 27 24 25 28 30 32 34 35 37 39 40 42 44 46 48 49 50 50 51 52 53 53 54
38 40 40 36 26 25 32 32 31 29 30 31 28 28 36 38 38 40 40 33 26 22 25 27 30 33 36 38 39 40 41 44 47 50 51 51 51 51 52 53 54 54 56 59
38 39 40 39 36 32 28 31 33 36 35 31 28 29 34 36 38 39 35 28 24 24 27 30 33 36 38 39 40 42 44 49 52 55 54 53 53 53 54 55 56 58 61 64
35 37 37 37 36 37 35 32 31 31 27 25 26 31 39 41 41 39 38 37 33 30 32 34 36 39 40 42 44 47 50 53 56 56 54 54 55 56 57 59 62 64 63 60
34 33 34 34 34 35 39 37 35 37 36 36 37 42 45 46 46 46 45 47 46 44 42 41 43 44 46 48 50 52 54 55 55 53 54 55 58 59 61 63 63 60 56 50
34 34 34 34 36 39 36 35 38 41 43 45 46 47 46 44 45 46 47 50 52 51 48 48 49 50 52 53 54 54 53 52 51 50 52 55 58 59 58 57 54 50 47 44
35 35 35 36 37 38 34 36 40 43 47 47 46 45 45 45 47 46 46 48 49 50 50 50 50 50 51 50 50 48 47 47 47 49 52 55 57 56 53 50 46 43 43 44
29 31 32 33 35 36 37 39 40 41 45 45 44 42 41 41 43 43 44 45 47 47 47 46 45 44 43 43 43 44 45 45 46 49 52 54 54 51 48 44 43 43 44 46
23 25 27 29 32 32 37 38 39 41 45 43 40 38 37 39 40 41 42 42 43 43 43 42 41 41 41 41 41 41 41 42 45 49 51 52 50 47 44 42 42 44 46 47
27 28 28 28 29 31 35 37 39 41 41 39 38 36 35 36 37 36 36 36 37 37 37 37 37 36 36 36 36 37 40 43 45 46 45 43 41 41 42 43 44 45 47 47
28 28 28 28 29 30 32 35 37 38 37 36 35 34 34 34 33 32 31 31 31 32 31 31 31 31 31 32 34 37 39 41 41 39 38 37 38 39 41 43 44 45 45 43
24 25 26 27 29 32 34 35 35 35 35 34 34 34 34 33 31 30 29 28 28 27 27 26 26 27 29 31 34 36 36 35 34 34 35 36 37 39 41 42 42 40 36 32
23 24 24 25 28 31 34 35 35 35 35 36 35 34 34 32 30 28 26 25 24 22 21 21 23 26 29 31 32 31 30 29 31 33 34 36 37 39 38 36 32 28 25 22
23 24 24 26 28 30 31 32 33 32 32 32 32 32 31 29 26 24 22 20 18 17 18 21 23 24 25 25 24 24 26 28 31 33 34 35 35 33 30 26 23 22 21 20

GEFSCGP_500_meanwind_018.txt.gz
Wind_Speed
33 33 31 28 28 28 31 33 32 29 28 29 26 22 19 18 24 28 28 29 31 35 38 39 39 39 38 37 36 35 34 34 34 33 33 31 30 31 32 33 34 34 36 38
33 30 26 28 31 31 33 33 31 29 30 30 28 26 24 23 25 27 29 32 35 39 42 42 41 41 40 39 38 38 37 36 36 35 35 34 34 34 36 37 38 38 39 41
28 24 28 31 30 30 31 31 29 29 30 32 33 32 27 25 25 28 32 35 39 43 44 43 42 42 40 39 39 39 39 40 40 39 37 36 35 36 38 39 40 41 42 44
27 28 31 32 30 28 27 26 27 28 32 34 35 37 32 30 29 31 34 36 40 43 43 43 42 40 38 38 39 40 41 42 42 41 37 36 36 38 39 39 40 42 44 45
27 29 30 29 27 26 24 22 22 25 29 32 34 37 34 32 35 36 38 39 41 43 43 40 36 34 34 37 40 41 42 42 42 39 37 36 37 38 39 40 41 42 42 44
27 32 32 28 25 22 20 20 22 25 27 26 22 28 26 24 31 38 41 41 42 42 40 36 33 33 35 39 41 42 43 43 41 40 37 36 36 37 39 40 40 42 43 44
31 35 34 32 28 24 22 22 23 24 23 18 14 20 15 15 23 29 32 33 34 36 36 35 33 34 38 41 43 45 44 43 41 40 38 36 36 37 39 40 41 42 44 45
31 34 32 29 26 23 23 23 23 23 21 17 17 19 14 17 20 21 21 23 24 27 30 31 32 35 39 42 43 43 41 41 39 38 37 36 37 38 40 42 43 44 45 46
30 30 26 24 21 21 21 22 22 24 24 24 21 19 18 21 21 21 21 21 22 24 28 31 33 37 40 42 41 40 39 37 36 36 36 37 39 41 43 45 46 47 48 48
26 29 28 26 25 26 25 22 24 26 27 26 23 19 19 22 24 26 28 27 26 28 30 34 37 39 40 39 38 37 36 33 33 35 36 39 42 44 46 47 49 49 50 51
27 30 32 30 27 27 28 29 29 28 26 24 24 22 22 23 24 25 28 29 30 31 33 35 38 39 40 39 36 34 31 31 33 35 38 42 45 47 49 50 51 52 53 55
32 33 34 32 27 25 28 32 33 32 28 25 24 26 26 28 28 29 31 33 35 36 36 38 40 40 41 40 35 30 29 32 35 39 42 45 48 50 52 53 53 55 57 60
37 37 35 34 31 29 30 31 32 31 29 28 28 30 31 32 33 34 36 38 40 41 42 41 41 42 43 37 31 31 32 35 39 43 46 49 51 53 55 56 57 59 62 64
40 39 38 37 38 37 34 33 33 32 31 30 31 33 36 38 39 39 40 42 43 44 43 42 41 41 40 35 34 35 36 40 43 46 49 52 54 55 57 59 62 64 65 65
40 40 40 40 40 42 41 39 38 37 37 37 37 39 42 44 45 45 46 47 46 44 41 38 36 36 38 39 39 40 42 44 47 49 52 55 57 60 62 64 65 66 65 63
42 41 40 40 40 42 45 47 46 43 42 43 45 47 48 49 48 49 50 50 45 40 35 35 38 41 43 44 45 46 47 49 50 52 54 57 58 60 61 62 61 61 60 59
44 43 42 41 40 40 44 47 49 48 48 48 48 48 48 48 48 48 49 47 44 40 39 41 43 46 47 48 49 49 50 51 52 52 53 53 53 54 55 55 55 56 56 56
44 45 45 43 41 39 40 43 46 47 48 49 51 51 50 48 47 46 47 47 47 47 47 47 48 49 49 49 49 49 50 50 50 49 49 49 49 50 52 53 53 53 53 53
38 39 38 37 36 36 34 35 37 39 41 43 45 48 50 50 50 50 50 50 50 50 50 50 50 49 49 48 48 48 48 47 46 45 45 46 47 49 49 50 50 50 49 48
32 34 35 35 35 36 35 34 35 37 39 40 42 44 45 46 46 47 48 49 50 50 50 50 49 49 48 48 47 45 44 43 42 42 42 43 44 45 45 46 46 45 45 44
26 28 30 31 32 33 33 32 31 33 36 37 40 42 44 46 46 46 46 46 47 47 48 48 47 46 45 44 43 42 41 39 39 38 39 40 41 42 43 43 42 42 42 42
21 22 23 25 25 26 26 26 26 27 29 31 34 37 40 42 43 44 45 45 45 44 44 43 42 42 41 41 40 38 37 36 36 37 38 39 39 39 39 39 40 40 40 40
19 19 19 20 22 23 23 25 26 26 26 27 29 32 35 37 39 40 41 41 41 40 38 38 38 38 37 36 35 34 33 34 35 35 36 36 37 37 38 39 39 38 37 35
16 17 19 19 21 23 24 24 26 26 27 28 29 31 32 34 35 35 35 35 35 35 36 36 35 34 33 32 31 31 32 32 32 33 34 35 36 37 37 37 35 33 31 29
15 16 18 20 22 24 25 27 27 28 29 29 30 31 32 32 32 32 32 32 32 32 31 30 29 28 28 28 29 29 29 30 31 32 34 35 35 35 33 31 30 28 27 26
15 17 19 20 23 25 26 27 28 28 28 28 28 29 29 29 29 28 27 26 24 23 22 22 22 23 23 24 25 26 28 30 32 33 33 33 32 30 28 27 26 25 24 24